owner,sensor,date,latitude,longitude,vertical_datum,direction_of_sea_water_velocity,sea_water_speed,upward_sea_water_velocity,qcFlag 
TABS,ioos:station:TABS:A:1,1996-05-01T00:00:00Z,29.5325,-93.8116,2.0,61.33407477,16.4685306,-99999.0,'11111222,11111222,99999999' 
TABS,ioos:station:TABS:A:1,1996-05-01T00:30:00Z,29.5325,-93.8116,2.0,80.98125519,16.13953221,-99999.0,'11111222,11111222,99999999' 
TABS,ioos:station:TABS:A:1,1996-05-01T01:00:00Z,29.5325,-93.8116,2.0,78.3473752,14.75408079,-99999.0,'11111222,11111222,99999999' 
TABS,ioos:station:TABS:A:1,1996-05-01T01:30:00Z,29.5325,-93.8116,2.0,83.59091674,14.69182085,-99999.0,'11111222,11111222,99999999' 
TABS,ioos:station:TABS:A:1,1996-05-01T02:00:00Z,29.5325,-93.8116,2.0,77.33832384,14.96390323,-99999.0,'11111222,11111222,99999999' 
TABS,ioos:station:TABS:A:1,1996-05-01T02:30:00Z,29.5325,-93.8116,2.0,81.81172882,16.71035607,-99999.0,'11111222,11111222,99999999' 
TABS,ioos:station:TABS:A:1,1996-05-01T03:00:00Z,29.5325,-93.8116,2.0,72.25983362,19.56012526,-99999.0,'11111222,11111222,99999999' 
TABS,ioos:station:TABS:A:1,1996-05-01T03:30:00Z,29.5325,-93.8116,2.0,74.05010743,17.35825452,-99999.0,'11111222,11111222,99999999' 
TABS,ioos:station:TABS:A:1,1996-05-01T04:00:00Z,29.5325,-93.8116,2.0,76.11617103,15.50293198,-99999.0,'11111222,11111222,99999999' 
TABS,ioos:station:TABS:A:1,1996-05-01T04:30:00Z,29.5325,-93.8116,2.0,76.21905714,16.87579628,-99999.0,'11111222,11111222,99999999' 
TABS,ioos:station:TABS:A:1,1996-05-01T05:00:00Z,29.5325,-93.8116,2.0,72.59777949,18.42325975,-99999.0,'11111222,11111222,99999999' 
TABS,ioos:station:TABS:A:1,1996-05-01T05:30:00Z,29.5325,-93.8116,2.0,76.30646257,18.2487068,-99999.0,'11111222,11111222,99999999' 
TABS,ioos:station:TABS:A:1,1996-05-01T06:00:00Z,29.5325,-93.8116,2.0,70.60406799,16.59164247,-99999.0,'11111222,11111222,99999999' 
TABS,ioos:station:TABS:A:1,1996-05-01T06:30:00Z,29.5325,-93.8116,2.0,60.14052341,17.35373447,-99999.0,'11111222,11111222,99999999' 
TABS,ioos:station:TABS:A:1,1996-05-01T07:00:00Z,29.5325,-93.8116,2.0,60.4823487,18.14518393,-99999.0,'11111222,11111222,99999999' 
TABS,ioos:station:TABS:A:1,1996-05-01T07:30:00Z,29.5325,-93.8116,2.0,69.63280504,16.69366946,-99999.0,'11111222,11111222,99999999' 
TABS,ioos:station:TABS:A:1,1996-05-01T08:00:00Z,29.5325,-93.8116,2.0,73.76420285,15.98760145,-99999.0,'11111222,11111222,99999999' 
TABS,ioos:station:TABS:A:1,1996-05-01T08:30:00Z,29.5325,-93.8116,2.0,83.41245861,15.60301573,-99999.0,'11111222,11111222,99999999' 
TABS,ioos:station:TABS:A:1,1996-05-01T09:00:00Z,29.5325,-93.8116,2.0,88.79816975,14.30314651,-99999.0,'11111222,11111222,99999999' 
TABS,ioos:station:TABS:A:1,1996-05-01T09:30:00Z,29.5325,-93.8116,2.0,80.23686294,13.15045627,-99999.0,'11111222,11111222,99999999' 
TABS,ioos:station:TABS:A:1,1996-05-01T10:00:00Z,29.5325,-93.8116,2.0,86.76274529,13.28119347,-99999.0,'11111222,11111222,99999999' 
TABS,ioos:station:TABS:A:1,1996-05-01T10:30:00Z,29.5325,-93.8116,2.0,91.06816049,16.09279653,-99999.0,'11111222,11111222,99999999' 
TABS,ioos:station:TABS:A:1,1996-05-01T11:00:00Z,29.5325,-93.8116,2.0,95.71404092,16.47184568,-99999.0,'11111222,11111222,99999999' 
TABS,ioos:station:TABS:A:1,1996-05-01T11:30:00Z,29.5325,-93.8116,2.0,92.74369856,15.66796094,-99999.0,'11111222,11111222,99999999' 
TABS,ioos:station:TABS:A:1,1996-05-01T12:00:00Z,29.5325,-93.8116,2.0,80.76594801,18.57065696,-99999.0,'11111222,11111222,99999999' 
TABS,ioos:station:TABS:A:1,1996-05-01T12:30:00Z,29.5325,-93.8116,2.0,81.57098557,20.32959665,-99999.0,'11111222,11111222,99999999' 
TABS,ioos:station:TABS:A:1,1996-05-01T13:00:00Z,29.5325,-93.8116,2.0,77.50401818,22.73865431,-99999.0,'11111222,11111222,99999999' 
TABS,ioos:station:TABS:A:1,1996-05-01T13:30:00Z,29.5325,-93.8116,2.0,77.32879663,24.43512226,-99999.0,'11111222,11111222,99999999' 
TABS,ioos:station:TABS:A:1,1996-05-01T14:00:00Z,29.5325,-93.8116,2.0,72.91684974,25.87146884,-99999.0,'11111222,11111222,99999999' 
TABS,ioos:station:TABS:A:1,1996-05-01T14:30:00Z,29.5325,-93.8116,2.0,72.48323726,26.24711222,-99999.0,'11111222,11111222,99999999' 
TABS,ioos:station:TABS:A:1,1996-05-01T15:00:00Z,29.5325,-93.8116,2.0,70.60384815,28.27474138,-99999.0,'11111222,11111222,99999999' 
TABS,ioos:station:TABS:A:1,1996-05-01T15:30:00Z,29.5325,-93.8116,2.0,70.4381122,28.94043884,-99999.0,'11111222,11111222,99999999' 
TABS,ioos:station:TABS:A:1,1996-05-01T16:00:00Z,29.5325,-93.8116,2.0,67.63649364,28.2010514,-99999.0,'11111222,11111222,99999999' 
TABS,ioos:station:TABS:A:1,1996-05-01T16:30:00Z,29.5325,-93.8116,2.0,71.37410951,28.46065705,-99999.0,'11111222,11111222,99999999' 
TABS,ioos:station:TABS:A:1,1996-05-01T17:00:00Z,29.5325,-93.8116,2.0,71.47007672,28.60284077,-99999.0,'11111222,11111222,99999999' 
TABS,ioos:station:TABS:A:1,1996-05-01T17:30:00Z,29.5325,-93.8116,2.0,70.64986259,26.52856951,-99999.0,'11111222,11111222,99999999' 
TABS,ioos:station:TABS:A:1,1996-05-01T18:00:00Z,29.5325,-93.8116,2.0,73.81895246,24.04242292,-99999.0,'11111222,11111222,99999999' 
TABS,ioos:station:TABS:A:1,1996-05-01T18:30:00Z,29.5325,-93.8116,2.0,75.79356409,23.67400684,-99999.0,'11111222,11111222,99999999' 
TABS,ioos:station:TABS:A:1,1996-05-01T19:00:00Z,29.5325,-93.8116,2.0,77.57369525,24.25828724,-99999.0,'11111222,11111222,99999999' 
TABS,ioos:station:TABS:A:1,1996-05-01T19:30:00Z,29.5325,-93.8116,2.0,84.93896708,25.27855415,-99999.0,'11111222,11111222,99999999' 
TABS,ioos:station:TABS:A:1,1996-05-01T20:00:00Z,29.5325,-93.8116,2.0,95.34390028,23.94407025,-99999.0,'11111222,11111222,99999999' 
TABS,ioos:station:TABS:A:1,1996-05-01T20:30:00Z,29.5325,-93.8116,2.0,106.6286223,3.110064308,-99999.0,'11133222,11111222,99999999' 
TABS,ioos:station:TABS:A:1,1996-05-01T21:00:00Z,29.5325,-93.8116,2.0,88.52109499,5.811935994,-99999.0,'11133222,11111222,99999999' 
TABS,ioos:station:TABS:A:1,1996-05-01T21:30:00Z,29.5325,-93.8116,2.0,90.0,8.79,-99999.0,'11133222,11111222,99999999' 
TABS,ioos:station:TABS:A:1,1996-05-01T22:00:00Z,29.5325,-93.8116,2.0,100.5684596,8.941683287,-99999.0,'11133222,11111222,99999999' 
TABS,ioos:station:TABS:A:1,1996-05-01T22:30:00Z,29.5325,-93.8116,2.0,87.64670864,7.306161783,-99999.0,'11133222,11111222,99999999' 
TABS,ioos:station:TABS:A:1,1996-05-01T23:00:00Z,29.5325,-93.8116,2.0,98.28756067,6.174479735,-99999.0,'11133222,11111222,99999999' 
TABS,ioos:station:TABS:A:1,1996-05-01T23:30:00Z,29.5325,-93.8116,2.0,86.84351091,10.89653156,-99999.0,'11111222,11111222,99999999' 
TABS,ioos:station:TABS:A:1,1996-05-02T00:00:00Z,29.5325,-93.8116,2.0,87.67282741,21.91807701,-99999.0,'11111222,11111222,99999999' 
TABS,ioos:station:TABS:A:1,1996-05-02T00:30:00Z,29.5325,-93.8116,2.0,89.56308184,19.67057193,-99999.0,'11111222,11111222,99999999' 
TABS,ioos:station:TABS:A:1,1996-05-02T01:00:00Z,29.5325,-93.8116,2.0,81.87396382,20.02102145,-99999.0,'11111222,11111222,99999999' 
TABS,ioos:station:TABS:A:1,1996-05-02T01:30:00Z,29.5325,-93.8116,2.0,78.78608541,19.89993216,-99999.0,'11111222,11111222,99999999' 
TABS,ioos:station:TABS:A:1,1996-05-02T02:00:00Z,29.5325,-93.8116,2.0,74.8054725,19.91624463,-99999.0,'11111222,11111222,99999999' 
TABS,ioos:station:TABS:A:1,1996-05-02T02:30:00Z,29.5325,-93.8116,2.0,65.66953899,18.81069111,-99999.0,'11111222,11111222,99999999' 
TABS,ioos:station:TABS:A:1,1996-05-02T03:00:00Z,29.5325,-93.8116,2.0,62.82858461,18.59171052,-99999.0,'11111222,11111222,99999999' 
TABS,ioos:station:TABS:A:1,1996-05-02T03:30:00Z,29.5325,-93.8116,2.0,60.26364144,16.8141488,-99999.0,'11111222,11111222,99999999' 
TABS,ioos:station:TABS:A:1,1996-05-02T04:00:00Z,29.5325,-93.8116,2.0,56.15363707,15.24321816,-99999.0,'11111222,11111222,99999999' 
TABS,ioos:station:TABS:A:1,1996-05-02T04:30:00Z,29.5325,-93.8116,2.0,58.24216967,14.72456791,-99999.0,'11111222,11111222,99999999' 
TABS,ioos:station:TABS:A:1,1996-05-02T05:00:00Z,29.5325,-93.8116,2.0,57.43607058,14.67742825,-99999.0,'11111222,11111222,99999999' 
TABS,ioos:station:TABS:A:1,1996-05-02T05:30:00Z,29.5325,-93.8116,2.0,53.66772118,9.806431563,-99999.0,'11133222,11111222,99999999' 
TABS,ioos:station:TABS:A:1,1996-05-02T06:00:00Z,29.5325,-93.8116,2.0,48.45671632,10.55509356,-99999.0,'11111222,11111222,99999999' 
TABS,ioos:station:TABS:A:1,1996-05-02T06:30:00Z,29.5325,-93.8116,2.0,43.44071781,7.795203654,-99999.0,'11133222,11111222,99999999' 
TABS,ioos:station:TABS:A:1,1996-05-02T07:00:00Z,29.5325,-93.8116,2.0,45.86033556,7.064792991,-99999.0,'11133222,11111222,99999999' 
TABS,ioos:station:TABS:A:1,1996-05-02T07:30:00Z,29.5325,-93.8116,2.0,35.47545953,6.409898595,-99999.0,'11133222,11111222,99999999' 
TABS,ioos:station:TABS:A:1,1996-05-02T08:00:00Z,29.5325,-93.8116,2.0,49.87700011,6.238052581,-99999.0,'11133222,11111222,99999999' 
TABS,ioos:station:TABS:A:1,1996-05-02T08:30:00Z,29.5325,-93.8116,2.0,59.59304723,7.942474426,-99999.0,'11133222,11111222,99999999' 
TABS,ioos:station:TABS:A:1,1996-05-02T09:00:00Z,29.5325,-93.8116,2.0,51.15777623,7.844647857,-99999.0,'11133222,11111222,99999999' 
TABS,ioos:station:TABS:A:1,1996-05-02T09:30:00Z,29.5325,-93.8116,2.0,70.12874286,7.443178085,-99999.0,'11133222,11111222,99999999' 
TABS,ioos:station:TABS:A:1,1996-05-02T10:00:00Z,29.5325,-93.8116,2.0,68.38645435,8.497464328,-99999.0,'11133222,11111222,99999999' 
TABS,ioos:station:TABS:A:1,1996-05-02T10:30:00Z,29.5325,-93.8116,2.0,81.72412653,7.22524048,-99999.0,'11133222,11111222,99999999' 
TABS,ioos:station:TABS:A:1,1996-05-02T11:00:00Z,29.5325,-93.8116,2.0,90.0,7.15,-99999.0,'11133222,11111222,99999999' 
TABS,ioos:station:TABS:A:1,1996-05-02T11:30:00Z,29.5325,-93.8116,2.0,90.0,7.45,-99999.0,'11133222,11111222,99999999' 
TABS,ioos:station:TABS:A:1,1996-05-02T12:00:00Z,29.5325,-93.8116,2.0,90.0,6.56,-99999.0,'11133222,11111222,99999999' 
TABS,ioos:station:TABS:A:1,1996-05-02T12:30:00Z,29.5325,-93.8116,2.0,99.62687473,8.012839696,-99999.0,'11133222,11111222,99999999' 
TABS,ioos:station:TABS:A:1,1996-05-02T13:00:00Z,29.5325,-93.8116,2.0,92.06010621,8.345393939,-99999.0,'11133222,11111222,99999999' 
TABS,ioos:station:TABS:A:1,1996-05-02T13:30:00Z,29.5325,-93.8116,2.0,86.34390683,9.409149802,-99999.0,'11133222,11111222,99999999' 
TABS,ioos:station:TABS:A:1,1996-05-02T14:00:00Z,29.5325,-93.8116,2.0,85.50455452,11.35493285,-99999.0,'11111222,11111222,99999999' 
TABS,ioos:station:TABS:A:1,1996-05-02T14:30:00Z,29.5325,-93.8116,2.0,83.33655568,11.54800849,-99999.0,'11111222,11111222,99999999' 
TABS,ioos:station:TABS:A:1,1996-05-02T15:00:00Z,29.5325,-93.8116,2.0,73.94677596,12.40368091,-99999.0,'11111222,11111222,99999999' 
TABS,ioos:station:TABS:A:1,1996-05-02T15:30:00Z,29.5325,-93.8116,2.0,73.29575518,10.88952708,-99999.0,'11111222,11111222,99999999' 
TABS,ioos:station:TABS:A:1,1996-05-02T16:00:00Z,29.5325,-93.8116,2.0,68.06986678,11.56699183,-99999.0,'11111222,11111222,99999999' 
TABS,ioos:station:TABS:A:1,1996-05-02T16:30:00Z,29.5325,-93.8116,2.0,55.33184682,9.422956012,-99999.0,'11133222,11111222,99999999' 
TABS,ioos:station:TABS:A:1,1996-05-02T17:00:00Z,29.5325,-93.8116,2.0,47.57688911,9.279552791,-99999.0,'11133222,11111222,99999999' 
TABS,ioos:station:TABS:A:1,1996-05-02T17:30:00Z,29.5325,-93.8116,2.0,37.79237484,10.93341667,-99999.0,'11111222,11111222,99999999' 
TABS,ioos:station:TABS:A:1,1996-05-02T18:00:00Z,29.5325,-93.8116,2.0,38.92938382,9.962434441,-99999.0,'11133222,11111222,99999999' 
TABS,ioos:station:TABS:A:1,1996-05-02T18:30:00Z,29.5325,-93.8116,2.0,26.1857637,10.12961006,-99999.0,'11111222,11111222,99999999' 
TABS,ioos:station:TABS:A:1,1996-05-02T19:00:00Z,29.5325,-93.8116,2.0,23.17665045,10.21432817,-99999.0,'11111222,11111222,99999999' 
TABS,ioos:station:TABS:A:1,1996-05-02T19:30:00Z,29.5325,-93.8116,2.0,43.35097407,3.685552876,-99999.0,'11133222,11111222,99999999' 
TABS,ioos:station:TABS:A:1,1996-05-02T20:00:00Z,29.5325,-93.8116,2.0,40.98437845,4.543709938,-99999.0,'11133222,11111222,99999999' 
TABS,ioos:station:TABS:A:1,1996-05-02T20:30:00Z,29.5325,-93.8116,2.0,51.03466033,4.977328601,-99999.0,'11133222,11111222,99999999' 
TABS,ioos:station:TABS:A:1,1996-05-02T21:00:00Z,29.5325,-93.8116,2.0,50.47497641,4.446774112,-99999.0,'11133222,11111222,99999999' 
TABS,ioos:station:TABS:A:1,1996-05-02T21:30:00Z,29.5325,-93.8116,2.0,45.00010523,4.850752519,-99999.0,'11133222,11111222,99999999' 
TABS,ioos:station:TABS:A:1,1996-05-02T22:00:00Z,29.5325,-93.8116,2.0,45.00010523,4.638620485,-99999.0,'11133222,11111222,99999999' 
TABS,ioos:station:TABS:A:1,1996-05-02T22:30:00Z,29.5325,-93.8116,2.0,56.97033861,4.091185647,-99999.0,'11133222,11111222,99999999' 
TABS,ioos:station:TABS:A:1,1996-05-02T23:00:00Z,29.5325,-93.8116,2.0,58.20909575,3.682458418,-99999.0,'11133222,11111222,99999999' 
TABS,ioos:station:TABS:A:1,1996-05-02T23:30:00Z,29.5325,-93.8116,2.0,47.61850857,4.643468531,-99999.0,'11133222,11111222,99999999' 
TABS,ioos:station:TABS:A:1,1996-05-03T00:00:00Z,29.5325,-93.8116,2.0,58.70408338,9.760148564,-99999.0,'11133222,11111222,99999999' 
TABS,ioos:station:TABS:A:1,1996-05-03T00:30:00Z,29.5325,-93.8116,2.0,58.09111067,10.70811375,-99999.0,'11111222,11111222,99999999' 
TABS,ioos:station:TABS:A:1,1996-05-03T01:00:00Z,29.5325,-93.8116,2.0,54.58848354,9.509079871,-99999.0,'11133222,11111222,99999999' 
TABS,ioos:station:TABS:A:1,1996-05-03T01:30:00Z,29.5325,-93.8116,2.0,54.18062572,9.927668407,-99999.0,'11133222,11111222,99999999' 
TABS,ioos:station:TABS:A:1,1996-05-03T02:00:00Z,29.5325,-93.8116,2.0,50.40605174,10.05736546,-99999.0,'11111222,11111222,99999999' 
TABS,ioos:station:TABS:A:1,1996-05-03T02:30:00Z,29.5325,-93.8116,2.0,43.98643814,11.59129415,-99999.0,'11111222,11111222,99999999' 
TABS,ioos:station:TABS:A:1,1996-05-03T03:00:00Z,29.5325,-93.8116,2.0,39.31490839,12.70556571,-99999.0,'11111222,11111222,99999999' 
TABS,ioos:station:TABS:A:1,1996-05-03T03:30:00Z,29.5325,-93.8116,2.0,35.67883241,15.58536814,-99999.0,'11111222,11111222,99999999' 
TABS,ioos:station:TABS:A:1,1996-05-03T04:00:00Z,29.5325,-93.8116,2.0,34.56844894,16.2851374,-99999.0,'11111222,11111222,99999999' 
TABS,ioos:station:TABS:A:1,1996-05-03T04:30:00Z,29.5325,-93.8116,2.0,26.56519952,16.65870643,-99999.0,'11111222,11111222,99999999' 
TABS,ioos:station:TABS:A:1,1996-05-03T05:00:00Z,29.5325,-93.8116,2.0,19.38050307,14.37450869,-99999.0,'11111222,11111222,99999999' 
TABS,ioos:station:TABS:A:1,1996-05-03T05:30:00Z,29.5325,-93.8116,2.0,18.03163238,13.47163687,-99999.0,'11111222,11111222,99999999' 
TABS,ioos:station:TABS:A:1,1996-05-03T06:00:00Z,29.5325,-93.8116,2.0,14.36219988,13.22325603,-99999.0,'11111222,11111222,99999999' 
TABS,ioos:station:TABS:A:1,1996-05-03T06:30:00Z,29.5325,-93.8116,2.0,19.58056259,11.54778334,-99999.0,'11111222,11111222,99999999' 
TABS,ioos:station:TABS:A:1,1996-05-03T07:00:00Z,29.5325,-93.8116,2.0,12.00335549,10.04972636,-99999.0,'11111222,11111222,99999999' 
TABS,ioos:station:TABS:A:1,1996-05-03T07:30:00Z,29.5325,-93.8116,2.0,15.15044749,9.106508661,-99999.0,'11133222,11111222,99999999' 
TABS,ioos:station:TABS:A:1,1996-05-03T08:00:00Z,29.5325,-93.8116,2.0,12.44614187,9.001538757,-99999.0,'11133222,11111222,99999999' 
TABS,ioos:station:TABS:A:1,1996-05-03T08:30:00Z,29.5325,-93.8116,2.0,18.07952325,8.152508816,-99999.0,'11133222,11111222,99999999' 
TABS,ioos:station:TABS:A:1,1996-05-03T09:00:00Z,29.5325,-93.8116,2.0,33.66743574,6.98090252,-99999.0,'11133222,11111222,99999999' 
TABS,ioos:station:TABS:A:1,1996-05-03T09:30:00Z,29.5325,-93.8116,2.0,42.11852824,8.439383864,-99999.0,'11133222,11111222,99999999' 
TABS,ioos:station:TABS:A:1,1996-05-03T10:00:00Z,29.5325,-93.8116,2.0,49.87737237,7.401925425,-99999.0,'11133222,11111222,99999999' 
TABS,ioos:station:TABS:A:1,1996-05-03T10:30:00Z,29.5325,-93.8116,2.0,83.44306883,5.25436961,-99999.0,'11133222,11111222,99999999' 
TABS,ioos:station:TABS:A:1,1996-05-03T11:00:00Z,29.5325,-93.8116,2.0,96.83192989,6.304768037,-99999.0,'11133222,11111222,99999999' 
TABS,ioos:station:TABS:A:1,1996-05-03T11:30:00Z,29.5325,-93.8116,2.0,113.7418642,5.538754373,-99999.0,'11133222,11111222,99999999' 
TABS,ioos:station:TABS:A:1,1996-05-03T12:00:00Z,29.5325,-93.8116,2.0,118.7058854,5.267380753,-99999.0,'11133222,11111222,99999999' 
TABS,ioos:station:TABS:A:1,1996-05-03T12:30:00Z,29.5325,-93.8116,2.0,96.95294121,4.956450343,-99999.0,'11133222,11111222,99999999' 
TABS,ioos:station:TABS:A:1,1996-05-03T13:00:00Z,29.5325,-93.8116,2.0,92.39925218,3.58314108,-99999.0,'11133222,11111222,99999999' 
TABS,ioos:station:TABS:A:1,1996-05-03T13:30:00Z,29.5325,-93.8116,2.0,90.0,5.81,-99999.0,'11133222,11111222,99999999' 
TABS,ioos:station:TABS:A:1,1996-05-03T14:00:00Z,29.5325,-93.8116,2.0,75.61626645,5.998016339,-99999.0,'11133222,11111222,99999999' 
TABS,ioos:station:TABS:A:1,1996-05-03T14:30:00Z,29.5325,-93.8116,2.0,76.22262562,7.516255717,-99999.0,'11133222,11111222,99999999' 
TABS,ioos:station:TABS:A:1,1996-05-03T15:00:00Z,29.5325,-93.8116,2.0,69.332811,8.443364258,-99999.0,'11133222,11111222,99999999' 
TABS,ioos:station:TABS:A:1,1996-05-03T15:30:00Z,29.5325,-93.8116,2.0,61.2464335,10.5395683,-99999.0,'11111222,11111222,99999999' 
TABS,ioos:station:TABS:A:1,1996-05-03T16:00:00Z,29.5325,-93.8116,2.0,56.68257407,11.94294771,-99999.0,'11111222,11111222,99999999' 
TABS,ioos:station:TABS:A:1,1996-05-03T16:30:00Z,29.5325,-93.8116,2.0,53.12113999,12.66400016,-99999.0,'11111222,11111222,99999999' 
TABS,ioos:station:TABS:A:1,1996-05-03T17:00:00Z,29.5325,-93.8116,2.0,55.51716184,9.22,-99999.0,'11133222,11111222,99999999' 
TABS,ioos:station:TABS:A:1,1996-05-03T17:30:00Z,29.5325,-93.8116,2.0,77.38070722,2.746343023,-99999.0,'11133222,11111222,99999999' 
TABS,ioos:station:TABS:A:1,1996-05-03T18:00:00Z,29.5325,-93.8116,2.0,54.9564788,3.639848898,-99999.0,'11133222,11111222,99999999' 
TABS,ioos:station:TABS:A:1,1996-05-03T18:30:00Z,29.5325,-93.8116,2.0,39.21182595,5.188333066,-99999.0,'11133222,11111222,99999999' 
TABS,ioos:station:TABS:A:1,1996-05-03T19:00:00Z,29.5325,-93.8116,2.0,33.0645306,3.555840266,-99999.0,'11133222,11111222,99999999' 
TABS,ioos:station:TABS:A:1,1996-05-03T19:30:00Z,29.5325,-93.8116,2.0,49.42138431,2.751763071,-99999.0,'11133222,11111222,99999999' 
TABS,ioos:station:TABS:A:1,1996-05-03T20:00:00Z,29.5325,-93.8116,2.0,57.33418186,2.482680004,-99999.0,'11133222,11111222,99999999' 
TABS,ioos:station:TABS:A:1,1996-05-03T20:30:00Z,29.5325,-93.8116,2.0,60.3438354,2.405036382,-99999.0,'11133222,11111222,99999999' 
TABS,ioos:station:TABS:A:1,1996-05-03T21:00:00Z,29.5325,-93.8116,2.0,47.50415022,2.427694379,-99999.0,'11133222,11111222,99999999' 
TABS,ioos:station:TABS:A:1,1996-05-03T21:30:00Z,29.5325,-93.8116,2.0,85.20988048,1.796273921,-99999.0,'11133222,11111222,99999999' 
TABS,ioos:station:TABS:A:1,1996-05-03T22:00:00Z,29.5325,-93.8116,2.0,65.42463027,1.803357979,-99999.0,'11133222,11111222,99999999' 
TABS,ioos:station:TABS:A:1,1996-05-03T22:30:00Z,29.5325,-93.8116,2.0,84.25135003,1.497531302,-99999.0,'11133222,11111222,99999999' 
TABS,ioos:station:TABS:A:1,1996-05-03T23:00:00Z,29.5325,-93.8116,2.0,78.69009397,0.764852927,-99999.0,'11133222,11111222,99999999' 
TABS,ioos:station:TABS:A:1,1996-05-03T23:30:00Z,29.5325,-93.8116,2.0,78.69009397,0.764852927,-99999.0,'11133222,11111222,99999999' 
TABS,ioos:station:TABS:A:1,1996-05-04T00:00:00Z,29.5325,-93.8116,2.0,123.9860876,1.073359213,-99999.0,'11133222,11111222,99999999' 
TABS,ioos:station:TABS:A:1,1996-05-04T00:30:00Z,29.5325,-93.8116,2.0,175.20967,1.796273921,-99999.0,'11133222,11111222,99999999' 
TABS,ioos:station:TABS:A:1,1996-05-04T01:00:00Z,29.5325,-93.8116,2.0,150.0182203,1.200666482,-99999.0,'11133222,11111222,99999999' 
TABS,ioos:station:TABS:A:1,1996-05-04T01:30:00Z,29.5325,-93.8116,2.0,260.4329155,0.902551938,-99999.0,'11133222,11111222,99999999' 
TABS,ioos:station:TABS:A:1,1996-05-04T02:00:00Z,29.5325,-93.8116,2.0,284.1498639,1.227232659,-99999.0,'11133222,11111222,99999999' 
TABS,ioos:station:TABS:A:1,1996-05-04T02:30:00Z,29.5325,-93.8116,2.0,26.56519952,0.335410197,-99999.0,'11133222,11111222,99999999' 
TABS,ioos:station:TABS:A:1,1996-05-04T03:00:00Z,29.5325,-93.8116,2.0,0.000210459,2.23,-99999.0,'11133222,11111222,99999999' 
TABS,ioos:station:TABS:A:1,1996-05-04T03:30:00Z,29.5325,-93.8116,2.0,325.2974401,4.707366567,-99999.0,'11133222,11111222,99999999' 
TABS,ioos:station:TABS:A:1,1996-05-04T04:00:00Z,29.5325,-93.8116,2.0,327.8158937,4.749873683,-99999.0,'11133222,11111222,99999999' 
TABS,ioos:station:TABS:A:1,1996-05-04T04:30:00Z,29.5325,-93.8116,2.0,9.660080948,6.197878669,-99999.0,'11133222,11111222,99999999' 
TABS,ioos:station:TABS:A:1,1996-05-04T05:00:00Z,29.5325,-93.8116,2.0,353.0022007,6.155858998,-99999.0,'11133222,11111222,99999999' 
TABS,ioos:station:TABS:A:1,1996-05-04T05:30:00Z,29.5325,-93.8116,2.0,347.983762,7.15682192,-99999.0,'11133222,11111222,99999999' 
TABS,ioos:station:TABS:A:1,1996-05-04T06:00:00Z,29.5325,-93.8116,2.0,352.6006331,4.658798128,-99999.0,'11133222,11111222,99999999' 
TABS,ioos:station:TABS:A:1,1996-05-04T06:30:00Z,29.5325,-93.8116,2.0,21.82366524,4.815080477,-99999.0,'11133222,11111222,99999999' 
TABS,ioos:station:TABS:A:1,1996-05-04T07:00:00Z,29.5325,-93.8116,2.0,341.6133313,3.772598574,-99999.0,'11133222,11111222,99999999' 
TABS,ioos:station:TABS:A:1,1996-05-04T07:30:00Z,29.5325,-93.8116,2.0,319.7904352,2.540314941,-99999.0,'11133222,11111222,99999999' 
TABS,ioos:station:TABS:A:1,1996-05-04T08:00:00Z,29.5325,-93.8116,2.0,310.5714571,4.120594617,-99999.0,'11133222,11111222,99999999' 
TABS,ioos:station:TABS:A:1,1996-05-04T08:30:00Z,29.5325,-93.8116,2.0,290.9982226,6.22326281,-99999.0,'11133222,11111222,99999999' 
TABS,ioos:station:TABS:A:1,1996-05-04T09:00:00Z,29.5325,-93.8116,2.0,293.3619065,6.002041319,-99999.0,'11133222,11111222,99999999' 
TABS,ioos:station:TABS:A:1,1996-05-04T09:30:00Z,29.5325,-93.8116,2.0,284.0083653,4.916197718,-99999.0,'11133222,11111222,99999999' 
TABS,ioos:station:TABS:A:1,1996-05-04T10:00:00Z,29.5325,-93.8116,2.0,280.3667193,3.334426487,-99999.0,'11133222,11111222,99999999' 
TABS,ioos:station:TABS:A:1,1996-05-04T10:30:00Z,29.5325,-93.8116,2.0,226.7495162,3.473514071,-99999.0,'11133222,11111222,99999999' 
TABS,ioos:station:TABS:A:1,1996-05-04T11:00:00Z,29.5325,-93.8116,2.0,233.4503634,5.004078337,-99999.0,'11133222,11111222,99999999' 
TABS,ioos:station:TABS:A:1,1996-05-04T11:30:00Z,29.5325,-93.8116,2.0,169.1482389,3.186989175,-99999.0,'11133222,11111222,99999999' 
TABS,ioos:station:TABS:A:1,1996-05-04T12:00:00Z,29.5325,-93.8116,2.0,152.2329702,3.198280788,-99999.0,'11133222,11111222,99999999' 
TABS,ioos:station:TABS:A:1,1996-05-04T12:30:00Z,29.5325,-93.8116,2.0,138.8366296,4.755344362,-99999.0,'11133222,11111222,99999999' 
TABS,ioos:station:TABS:A:1,1996-05-04T13:00:00Z,29.5325,-93.8116,2.0,106.3772646,5.284411036,-99999.0,'11133222,11111222,99999999' 
TABS,ioos:station:TABS:A:1,1996-05-04T13:30:00Z,29.5325,-93.8116,2.0,109.4459004,5.376709031,-99999.0,'11133222,11111222,99999999' 
TABS,ioos:station:TABS:A:1,1996-05-04T14:00:00Z,29.5325,-93.8116,2.0,85.39552361,7.474122022,-99999.0,'11133222,11111222,99999999' 
TABS,ioos:station:TABS:A:1,1996-05-04T14:30:00Z,29.5325,-93.8116,2.0,83.69107241,8.099049327,-99999.0,'11133222,11111222,99999999' 
TABS,ioos:station:TABS:A:1,1996-05-04T15:00:00Z,29.5325,-93.8116,2.0,85.30133047,7.324616031,-99999.0,'11133222,11111222,99999999' 
TABS,ioos:station:TABS:A:1,1996-05-04T15:30:00Z,29.5325,-93.8116,2.0,76.74690567,7.807951076,-99999.0,'11133222,11111222,99999999' 
TABS,ioos:station:TABS:A:1,1996-05-04T16:00:00Z,29.5325,-93.8116,2.0,58.85987737,8.353735691,-99999.0,'11133222,11111222,99999999' 
TABS,ioos:station:TABS:A:1,1996-05-04T16:30:00Z,29.5325,-93.8116,2.0,65.5719168,8.995248746,-99999.0,'11133222,11111222,99999999' 
TABS,ioos:station:TABS:A:1,1996-05-04T17:00:00Z,29.5325,-93.8116,2.0,68.19864149,8.023895563,-99999.0,'11133222,11111222,99999999' 
TABS,ioos:station:TABS:A:1,1996-05-04T17:30:00Z,29.5325,-93.8116,2.0,53.36760011,7.240062154,-99999.0,'11133222,11111222,99999999' 
TABS,ioos:station:TABS:A:1,1996-05-04T18:00:00Z,29.5325,-93.8116,2.0,98.79052263,1.963058838,-99999.0,'11133222,11111222,99999999' 